Preview of NWS' New Version of Forecast
This preview is not operational and should not be used for support decisions.

Regional Weather Roundup (RWR)

Issued by National Weather Service (NWS)

                            
000
ASUS43 KLSX 180357
RWRMO 

WEATHER SUMMARY FOR MISSOURI
NATIONAL WEATHER SERVICE SPRINGFIELD MO
1100 PM CDT WED JUL 17 2019

NOTE: "FAIR" INDICATES FEW OR NO CLOUDS BELOW 12,000 FEET WITH NO
       SIGNIFICANT WEATHER AND/OR OBSTRUCTIONS TO VISIBILITY.
       CURRENT SKY AND/OR WEATHER CONDITIONS ARE NOT AVAILABLE FOR
       CHILLICOTHE AND FARMINGTON.

MOZ001>031-035>038-043-044-053-054-180500-
...NORTHERN AND WESTERN MISSOURI...
  
CITY           SKY/WX    TMP DP  RH WIND       PRES   REMARKS
KANSAS CTY INT FAIR      84  73  69 S14       29.86R HX  90           
LEE'S SUMMIT   FAIR      85  73  67 S14G23    29.89R HX  91           
ST JOSEPH      FAIR      86  73  65 S10       29.82R HX  93           
CHILLICOTHE      N/A     78  71  79 S8        29.89S                  
     
$$
MOZ066>068-077>081-088>096-101>105-180500-
...SOUTHWEST MISSOURI...
  
CITY           SKY/WX    TMP DP  RH WIND       PRES   REMARKS
SPRINGFIELD    CLEAR     82  72  71 S9        29.98S                  
JOPLIN         CLEAR     81  71  71 S10       29.95R                  
               
$$
MOZ032>034-039>042-045>050-055>058-069>072-180500-
...CENTRAL MISSOURI...  
  
CITY           SKY/WX    TMP DP  RH WIND       PRES   REMARKS
COLUMBIA       NOT AVBL                                               
ROLLA          CLEAR     70  67  90 SE13      29.98F                  
SEDALIA        FAIR      72  71  97 SE13      29.94S                  
               
$$
MOZ051-052-059>065-180500-
...EAST CENTRAL MISSOURI...
  
CITY           SKY/WX    TMP DP  RH WIND       PRES   REMARKS
ST LOUIS INTL  CLOUDY    76  69  79 S14       29.95F                  
                   
$$
MOZ072>076-082>087-097>100-106>115-180500-
...SOUTH CENTRAL AND SOUTHEAST MISSOURI...
  
CITY           SKY/WX    TMP DP  RH WIND       PRES   REMARKS
CAPE GIRARDEAU NOT AVBL                                               
POPLAR BLUFF   TSTM      74  73  97 MISG      30.09R                  
WEST PLAINS    CLOUDY    76  67  73 SE7G22    30.07F                  
                                       
$$